Tracking 19176 objects as of 26-May-2018
HD Live streaming from Space Station
objects crossing your sky now

COSMOS 1481 DEB

Track COSMOS 1481 DEB now!


NORAD ID: 14192
Int'l Code: 1983-070E
Perigee: 2,559.8 km
Apogee: 37,368.4 km
Inclination: 68.4 °
Period: 708.9 minutes
Semi major axis: 26335 km
RCS: 2.531 m2 (large)
Launch date: July 8, 1983
Source: Commonwealth of Independent States (former USSR) (CIS)
Launch site: PLESETSK MISSILE AND SPACE COMPLEX (PKMTR)

Note: This is SATELLITE DEBRIS
aabbcc
Your satellite tracking list
Your tracking list is empty




NASA's NSSDC Master Catalog

Two Line Element Set (TLE):
1 14192U 83070E   18145.43583242 -.00000908 +00000-0 +00000-0 0  9993
2 14192 068.3719 057.3154 6608787 348.4209 177.2941 02.03142444179800
Source of the keplerian elements: AFSPC